Terminal Aerodrome Forecast
Issued by NWS Twin Cities, MN

Home | Current Version | Previous Version | Graphics & Text | Print | Product List | Glossary On
Versions: 1 2 3 4 5 6 7 8 9 10 11 12 13 14 15 16
000
FTUS43 KMPX 021739
TAFEAU
TAF
KEAU 021739Z 0218/0318 29005KT P6SM OVC025
     FM030600 27004KT P6SM OVC020=

USA.gov is the U.S. government's official web portal to all federal, state and local government web resources and services.